Time,TemperatureF,DewpointF,PressureIn,WindDirection,WindDirectionDegrees,WindSpeedMPH,WindSpeedGustMPH,Humidity,HourlyPrecipIn,Conditions,Clouds,dailyrainin,SoftwareType,DateUTC
2013-04-01 00:00:00,48.0,39.8,29.72,SE,134,13.0,13.0,73,0.00,,,0.00,Wunderground v.1.15,2013-04-01 04:00:00,
2013-04-01 00:02:00,47.9,39.7,29.72,SE,125,7.0,13.0,73,0.00,,,0.01,Wunderground v.1.15,2013-04-01 04:02:00,
2013-04-01 00:04:00,47.9,40.0,29.71,SSE,153,7.0,14.0,74,0.00,,,0.01,Wunderground v.1.15,2013-04-01 04:04:00,
2013-04-01 00:08:00,47.8,40.3,29.71,SE,132,7.0,14.0,75,0.00,,,0.01,Wunderground v.1.15,2013-04-01 04:08:00,
2013-04-01 00:13:00,47.7,40.2,29.71,ESE,114,13.0,13.0,75,0.00,,,0.01,Wunderground v.1.15,2013-04-01 04:13:00,
2013-04-01 00:18:00,47.6,40.7,29.70,SE,140,8.0,13.0,77,0.00,,,0.01,Wunderground v.1.15,2013-04-01 04:18:00,
2013-04-01 00:23:00,47.5,40.6,29.70,SE,132,13.0,13.0,77,0.00,,,0.01,Wunderground v.1.15,2013-04-01 04:23:00,
2013-04-01 00:28:00,47.3,40.5,29.69,ESE,111,14.0,14.0,77,0.00,,,0.01,Wunderground v.1.15,2013-04-01 04:28:00,
2013-04-01 00:34:00,47.2,40.7,29.69,SE,126,8.0,14.0,78,0.00,,,0.01,Wunderground v.1.15,2013-04-01 04:34:00,
2013-04-01 00:39:00,47.2,40.7,29.68,ESE,109,10.0,14.0,78,0.00,,,0.01,Wunderground v.1.15,2013-04-01 04:39:00,
2013-04-01 00:44:00,47.0,40.8,29.67,ESE,119,15.0,15.0,79,0.00,,,0.01,Wunderground v.1.15,2013-04-01 04:44:00,
2013-04-01 00:49:00,46.9,40.7,29.67,ESE,113,9.0,15.0,79,0.00,,,0.01,Wunderground v.1.15,2013-04-01 04:49:00,
2013-04-01 00:54:00,46.8,41.0,29.66,SE,134,10.0,15.0,80,0.00,,,0.01,Wunderground v.1.15,2013-04-01 04:54:00,
2013-04-01 01:00:00,46.8,41.0,29.66,ESE,113,8.0,10.0,80,0.00,,,0.01,Wunderground v.1.15,2013-04-01 05:00:00,
2013-04-01 01:05:00,46.8,41.3,29.65,SE,137,15.0,15.0,81,0.00,,,0.01,Wunderground v.1.15,2013-04-01 05:05:00,
2013-04-01 01:11:00,46.9,41.4,29.64,East,94,14.0,14.0,81,0.00,,,0.01,Wunderground v.1.15,2013-04-01 05:11:00,
2013-04-01 01:16:00,46.8,41.3,29.64,SE,137,8.0,14.0,81,0.00,,,0.01,Wunderground v.1.15,2013-04-01 05:16:00,
2013-04-01 01:22:00,46.8,41.6,29.63,ESE,115,9.0,10.0,82,0.00,,,0.01,Wunderground v.1.15,2013-04-01 05:22:00,
2013-04-01 01:27:00,46.7,41.5,29.63,ESE,113,15.0,15.0,82,0.00,,,0.01,Wunderground v.1.15,2013-04-01 05:27:00,
2013-04-01 01:33:00,46.7,41.5,29.62,East,96,13.0,13.0,82,0.00,,,0.01,Wunderground v.1.15,2013-04-01 05:33:00,
2013-04-01 01:38:00,46.7,41.8,29.61,SE,126,10.0,13.0,83,0.00,,,0.01,Wunderground v.1.15,2013-04-01 05:38:00,
2013-04-01 01:44:00,46.6,41.7,29.61,ESE,105,9.0,14.0,83,0.00,,,0.01,Wunderground v.1.15,2013-04-01 05:44:00,
2013-04-01 01:49:00,46.5,41.6,29.60,ESE,113,10.0,14.0,83,0.00,,,0.01,Wunderground v.1.15,2013-04-01 05:49:00,
2013-04-01 01:55:00,46.3,41.4,29.59,ESE,106,8.0,15.0,83,0.00,,,0.02,Wunderground v.1.15,2013-04-01 05:55:00,
2013-04-01 02:00:00,46.1,41.2,29.59,East,96,11.0,11.0,83,0.00,,,0.02,Wunderground v.1.15,2013-04-01 06:00:00,
2013-04-01 02:05:00,45.9,41.0,29.58,ESE,102,9.0,17.0,83,0.00,,,0.02,Wunderground v.1.15,2013-04-01 06:05:00,
2013-04-01 02:10:00,45.6,40.7,29.57,East,82,11.0,14.0,83,0.00,,,0.02,Wunderground v.1.15,2013-04-01 06:10:00,
2013-04-01 02:15:00,45.3,40.7,29.56,ESE,105,9.0,17.0,84,0.00,,,0.02,Wunderground v.1.15,2013-04-01 06:15:00,
2013-04-01 02:20:00,45.2,40.7,29.56,East,97,13.0,16.0,84,0.00,,,0.03,Wunderground v.1.15,2013-04-01 06:20:00,
2013-04-01 02:25:00,45.1,40.6,29.55,ESE,111,8.0,16.0,84,0.00,,,0.03,Wunderground v.1.15,2013-04-01 06:25:00,
2013-04-01 02:30:00,45.0,40.5,29.55,ESE,110,11.0,11.0,84,0.00,,,0.03,Wunderground v.1.15,2013-04-01 06:30:00,
2013-04-01 02:35:00,44.9,40.4,29.55,East,96,3.0,13.0,84,0.00,,,0.03,Wunderground v.1.15,2013-04-01 06:35:00,
2013-04-01 02:40:00,44.8,40.6,29.55,East,84,6.0,8.0,85,0.00,,,0.03,Wunderground v.1.15,2013-04-01 06:40:00,
2013-04-01 02:45:00,44.7,40.5,29.55,ESE,105,4.0,9.0,85,0.00,,,0.03,Wunderground v.1.15,2013-04-01 06:45:00,
2013-04-01 02:50:00,44.7,40.5,29.55,East,81,3.0,5.0,85,0.00,,,0.03,Wunderground v.1.15,2013-04-01 06:50:00,
2013-04-01 02:55:00,44.7,40.5,29.54,East,88,5.0,6.0,85,0.00,,,0.03,Wunderground v.1.15,2013-04-01 06:55:00,
2013-04-01 03:00:00,44.6,40.4,29.54,East,90,3.0,6.0,85,0.00,,,0.03,Wunderground v.1.15,2013-04-01 07:00:00,
2013-04-01 03:05:00,44.7,40.5,29.53,East,100,6.0,7.0,85,0.00,,,0.03,Wunderground v.1.15,2013-04-01 07:05:00,
2013-04-01 03:10:00,44.8,40.6,29.53,ENE,78,3.0,5.0,85,0.00,,,0.04,Wunderground v.1.15,2013-04-01 07:10:00,
2013-04-01 03:15:00,44.8,40.6,29.52,East,91,1.0,7.0,85,0.00,,,0.04,Wunderground v.1.15,2013-04-01 07:15:00,
2013-04-01 03:20:00,44.7,40.5,29.52,ENE,76,2.0,4.0,85,0.00,,,0.04,Wunderground v.1.15,2013-04-01 07:20:00,
2013-04-01 03:25:00,44.6,40.4,29.53,ENE,76,0.0,4.0,85,0.00,,,0.04,Wunderground v.1.15,2013-04-01 07:25:00,
2013-04-01 03:30:00,44.6,40.7,29.52,ENE,76,1.0,1.0,86,0.00,,,0.04,Wunderground v.1.15,2013-04-01 07:30:00,
2013-04-01 03:35:00,44.7,40.8,29.52,ENE,76,3.0,4.0,86,0.00,,,0.04,Wunderground v.1.15,2013-04-01 07:35:00,
2013-04-01 03:40:00,44.6,40.7,29.52,ENE,76,0.0,1.0,86,0.00,,,0.04,Wunderground v.1.15,2013-04-01 07:40:00,
2013-04-01 03:45:00,44.5,40.6,29.52,ENE,76,0.0,3.0,86,0.00,,,0.04,Wunderground v.1.15,2013-04-01 07:45:00,
2013-04-01 03:50:00,44.5,40.3,29.52,ENE,76,1.0,2.0,85,0.00,,,0.04,Wunderground v.1.15,2013-04-01 07:50:00,
2013-04-01 03:55:00,44.5,40.6,29.52,NW,311,4.0,5.0,86,0.00,,,0.04,Wunderground v.1.15,2013-04-01 07:55:00,
2013-04-01 04:00:00,44.5,40.6,29.52,NW,318,4.0,4.0,86,0.00,,,0.04,Wunderground v.1.15,2013-04-01 08:00:00,
2013-04-01 04:05:00,44.4,40.5,29.52,NW,318,2.0,4.0,86,0.00,,,0.05,Wunderground v.1.15,2013-04-01 08:05:00,
2013-04-01 04:10:00,44.4,40.5,29.52,NW,319,4.0,4.0,86,0.00,,,0.05,Wunderground v.1.15,2013-04-01 08:10:00,
2013-04-01 04:15:00,44.4,40.5,29.52,NW,311,3.0,5.0,86,0.00,,,0.05,Wunderground v.1.15,2013-04-01 08:15:00,
2013-04-01 04:20:00,44.3,40.4,29.52,NW,319,3.0,4.0,86,0.00,,,0.05,Wunderground v.1.15,2013-04-01 08:20:00,
2013-04-01 04:25:00,44.3,40.4,29.51,NW,321,1.0,6.0,86,0.00,,,0.05,Wunderground v.1.15,2013-04-01 08:25:00,
2013-04-01 04:30:00,44.3,40.4,29.51,NW,323,4.0,4.0,86,0.00,,,0.05,Wunderground v.1.15,2013-04-01 08:30:00,
2013-04-01 04:35:00,44.3,40.4,29.51,NNW,333,4.0,4.0,86,0.00,,,0.05,Wunderground v.1.15,2013-04-01 08:35:00,
2013-04-01 04:40:00,44.3,40.4,29.52,WNW,303,0.0,3.0,86,0.00,,,0.05,Wunderground v.1.15,2013-04-01 08:40:00,
2013-04-01 04:45:00,44.4,40.5,29.52,WNW,290,1.0,6.0,86,0.00,,,0.05,Wunderground v.1.15,2013-04-01 08:45:00,
2013-04-01 04:50:00,44.4,40.5,29.52,West,281,0.0,3.0,86,0.00,,,0.05,Wunderground v.1.15,2013-04-01 08:50:00,
2013-04-01 04:55:00,44.5,40.9,29.53,WNW,288,6.0,7.0,87,0.00,,,0.05,Wunderground v.1.15,2013-04-01 08:55:00,
2013-04-01 05:00:00,44.5,40.9,29.53,WNW,284,2.0,5.0,87,0.00,,,0.05,Wunderground v.1.15,2013-04-01 09:00:00,
2013-04-01 05:06:00,44.5,40.9,29.53,WNW,286,3.0,5.0,87,0.00,,,0.05,Wunderground v.1.15,2013-04-01 09:06:00,
2013-04-01 05:11:00,44.5,40.9,29.53,West,279,5.0,7.0,87,0.00,,,0.05,Wunderground v.1.15,2013-04-01 09:11:00,
2013-04-01 05:16:00,44.5,40.9,29.53,WNW,288,2.0,8.0,87,0.00,,,0.05,Wunderground v.1.15,2013-04-01 09:16:00,
2013-04-01 05:22:00,44.6,41.0,29.54,NW,309,4.0,7.0,87,0.00,,,0.05,Wunderground v.1.15,2013-04-01 09:22:00,
2013-04-01 05:27:00,44.6,41.0,29.54,West,273,2.0,7.0,87,0.00,,,0.05,Wunderground v.1.15,2013-04-01 09:27:00,
2013-04-01 05:32:00,44.6,41.0,29.54,WNW,298,3.0,7.0,87,0.00,,,0.05,Wunderground v.1.15,2013-04-01 09:32:00,
2013-04-01 05:37:00,44.6,41.0,29.54,West,271,5.0,9.0,87,0.00,,,0.05,Wunderground v.1.15,2013-04-01 09:37:00,
2013-04-01 05:42:00,44.6,41.0,29.55,NW,315,7.0,9.0,87,0.00,,,0.05,Wunderground v.1.15,2013-04-01 09:42:00,
2013-04-01 05:47:00,44.6,41.0,29.56,WNW,288,7.0,9.0,87,0.00,,,0.05,Wunderground v.1.15,2013-04-01 09:47:00,
2013-04-01 05:52:00,44.6,41.0,29.56,WNW,292,4.0,10.0,87,0.00,,,0.05,Wunderground v.1.15,2013-04-01 09:52:00,
2013-04-01 05:57:00,44.5,40.9,29.56,West,273,5.0,11.0,87,0.00,,,0.05,Wunderground v.1.15,2013-04-01 09:57:00,
2013-04-01 06:02:00,44.3,40.4,29.56,NW,313,2.0,8.0,86,0.00,,,0.05,Wunderground v.1.15,2013-04-01 10:02:00,
2013-04-01 06:07:00,44.1,40.2,29.57,NW,306,8.0,11.0,86,0.00,,,0.05,Wunderground v.1.15,2013-04-01 10:07:00,
2013-04-01 06:12:00,44.0,40.1,29.57,NW,319,7.0,10.0,86,0.00,,,0.05,Wunderground v.1.15,2013-04-01 10:12:00,
2013-04-01 06:17:00,43.9,40.0,29.57,WNW,283,5.0,12.0,86,0.00,,,0.05,Wunderground v.1.15,2013-04-01 10:17:00,
2013-04-01 06:23:00,43.8,40.2,29.57,WNW,295,4.0,11.0,87,0.00,,,0.05,Wunderground v.1.15,2013-04-01 10:23:00,
2013-04-01 06:28:00,43.7,39.8,29.57,NNW,344,3.0,11.0,86,0.00,,,0.05,Wunderground v.1.15,2013-04-01 10:28:00,
2013-04-01 06:33:00,43.7,40.1,29.57,WNW,296,6.0,10.0,87,0.00,,,0.05,Wunderground v.1.15,2013-04-01 10:33:00,
2013-04-01 06:38:00,43.6,40.0,29.58,West,273,6.0,12.0,87,0.00,,,0.05,Wunderground v.1.15,2013-04-01 10:38:00,
2013-04-01 06:43:00,43.6,40.0,29.58,WNW,287,5.0,8.0,87,0.00,,,0.05,Wunderground v.1.15,2013-04-01 10:43:00,
2013-04-01 06:48:00,43.6,40.0,29.58,NW,306,8.0,10.0,87,0.00,,,0.05,Wunderground v.1.15,2013-04-01 10:48:00,
2013-04-01 06:53:00,43.6,39.7,29.58,WNW,300,7.0,11.0,86,0.00,,,0.05,Wunderground v.1.15,2013-04-01 10:53:00,
2013-04-01 06:58:00,43.5,39.6,29.58,WSW,247,5.0,13.0,86,0.00,,,0.05,Wunderground v.1.15,2013-04-01 10:58:00,
2013-04-01 07:03:00,43.5,39.6,29.59,West,259,4.0,8.0,86,0.00,,,0.05,Wunderground v.1.15,2013-04-01 11:03:00,
2013-04-01 07:08:00,43.5,39.6,29.59,WNW,292,6.0,10.0,86,0.00,,,0.05,Wunderground v.1.15,2013-04-01 11:08:00,
2013-04-01 07:13:00,43.5,39.6,29.58,NW,315,6.0,11.0,86,0.00,,,0.05,Wunderground v.1.15,2013-04-01 11:13:00,
2013-04-01 07:18:00,43.5,39.6,29.58,NW,305,7.0,11.0,86,0.00,,,0.05,Wunderground v.1.15,2013-04-01 11:18:00,
2013-04-01 07:23:00,43.5,39.6,29.58,WNW,296,10.0,14.0,86,0.00,,,0.05,Wunderground v.1.15,2013-04-01 11:23:00,
2013-04-01 07:28:00,43.4,39.5,29.58,West,259,3.0,14.0,86,0.00,,,0.05,Wunderground v.1.15,2013-04-01 11:28:00,
2013-04-01 07:33:00,43.4,39.5,29.58,WSW,257,14.0,14.0,86,0.00,,,0.05,Wunderground v.1.15,2013-04-01 11:33:00,
2013-04-01 07:38:00,43.4,39.5,29.59,WNW,285,8.0,14.0,86,0.00,,,0.05,Wunderground v.1.15,2013-04-01 11:38:00,
2013-04-01 07:43:00,43.4,39.5,29.58,West,281,6.0,10.0,86,0.00,,,0.05,Wunderground v.1.15,2013-04-01 11:43:00,
2013-04-01 07:48:00,43.4,39.5,29.59,WNW,298,12.0,15.0,86,0.00,,,0.05,Wunderground v.1.15,2013-04-01 11:48:00,
2013-04-01 07:53:00,43.4,39.5,29.59,NW,309,11.0,12.0,86,0.00,,,0.05,Wunderground v.1.15,2013-04-01 11:53:00,
2013-04-01 07:58:00,43.4,39.5,29.59,NW,310,4.0,13.0,86,0.00,,,0.05,Wunderground v.1.15,2013-04-01 11:58:00,
2013-04-01 08:03:00,43.6,39.7,29.59,WNW,296,6.0,11.0,86,0.00,,,0.05,Wunderground v.1.15,2013-04-01 12:03:00,
2013-04-01 08:08:00,43.8,39.9,29.59,NNW,336,9.0,11.0,86,0.00,,,0.05,Wunderground v.1.15,2013-04-01 12:08:00,
2013-04-01 08:13:00,43.9,40.0,29.59,West,260,3.0,11.0,86,0.00,,,0.05,Wunderground v.1.15,2013-04-01 12:13:00,
2013-04-01 08:18:00,44.1,40.2,29.58,NW,319,5.0,11.0,86,0.00,,,0.05,Wunderground v.1.15,2013-04-01 12:18:00,
2013-04-01 08:23:00,44.3,40.4,29.58,NW,314,4.0,9.0,86,0.00,,,0.05,Wunderground v.1.15,2013-04-01 12:23:00,
2013-04-01 08:28:00,44.5,40.6,29.58,NW,307,6.0,9.0,86,0.00,,,0.05,Wunderground v.1.15,2013-04-01 12:28:00,
2013-04-01 08:33:00,44.9,41.0,29.58,NW,314,11.0,12.0,86,0.00,,,0.05,Wunderground v.1.15,2013-04-01 12:33:00,
2013-04-01 08:38:00,45.0,40.8,29.58,NNW,327,7.0,12.0,85,0.00,,,0.05,Wunderground v.1.15,2013-04-01 12:38:00,
2013-04-01 08:44:00,45.4,40.8,29.58,West,274,6.0,14.0,84,0.00,,,0.05,Wunderground v.1.15,2013-04-01 12:44:00,
2013-04-01 08:49:00,45.6,41.0,29.59,WNW,298,3.0,14.0,84,0.00,,,0.05,Wunderground v.1.15,2013-04-01 12:49:00,
2013-04-01 08:54:00,45.9,41.3,29.59,SSW,208,6.0,9.0,84,0.00,,,0.05,Wunderground v.1.15,2013-04-01 12:54:00,
2013-04-01 08:59:00,46.3,41.7,29.59,NW,321,2.0,13.0,84,0.00,,,0.05,Wunderground v.1.15,2013-04-01 12:59:00,
2013-04-01 09:04:00,46.6,41.7,29.59,WSW,246,5.0,9.0,83,0.00,,,0.05,Wunderground v.1.15,2013-04-01 13:04:00,
2013-04-01 09:09:00,46.8,41.6,29.59,West,261,7.0,14.0,82,0.00,,,0.05,Wunderground v.1.15,2013-04-01 13:09:00,
2013-04-01 09:14:00,47.0,41.5,29.59,West,273,5.0,10.0,81,0.00,,,0.05,Wunderground v.1.15,2013-04-01 13:14:00,
2013-04-01 09:19:00,47.4,41.9,29.59,West,264,2.0,12.0,81,0.00,,,0.05,Wunderground v.1.15,2013-04-01 13:19:00,
2013-04-01 09:24:00,47.6,41.4,29.59,West,277,5.0,11.0,79,0.00,,,0.05,Wunderground v.1.15,2013-04-01 13:24:00,
2013-04-01 09:29:00,47.7,41.5,29.59,WSW,238,2.0,11.0,79,0.00,,,0.05,Wunderground v.1.15,2013-04-01 13:29:00,
2013-04-01 09:34:00,48.1,42.2,29.59,SW,225,3.0,5.0,80,0.00,,,0.05,Wunderground v.1.15,2013-04-01 13:34:00,
2013-04-01 09:39:00,48.8,42.6,29.59,WSW,238,3.0,10.0,79,0.00,,,0.05,Wunderground v.1.15,2013-04-01 13:39:00,
2013-04-01 09:44:00,49.4,42.1,29.59,NW,304,4.0,9.0,76,0.00,,,0.05,Wunderground v.1.15,2013-04-01 13:44:00,
2013-04-01 09:49:00,49.8,42.2,29.59,SW,227,10.0,10.0,75,0.00,,,0.05,Wunderground v.1.15,2013-04-01 13:49:00,
2013-04-01 09:54:00,50.5,42.5,29.59,WNW,303,5.0,12.0,74,0.00,,,0.05,Wunderground v.1.15,2013-04-01 13:54:00,
2013-04-01 09:59:00,51.1,42.4,29.59,NW,317,6.0,12.0,72,0.00,,,0.05,Wunderground v.1.15,2013-04-01 13:59:00,
2013-04-01 10:04:00,51.5,42.4,29.59,WNW,290,5.0,16.0,71,0.00,,,0.05,Wunderground v.1.15,2013-04-01 14:04:00,
2013-04-01 10:09:00,51.9,42.8,29.58,West,265,12.0,16.0,71,0.00,,,0.05,Wunderground v.1.15,2013-04-01 14:09:00,
2013-04-01 10:14:00,52.2,42.0,29.58,SW,219,6.0,13.0,68,0.00,,,0.05,Wunderground v.1.15,2013-04-01 14:14:00,
2013-04-01 10:19:00,52.5,43.4,29.58,West,273,4.0,13.0,71,0.00,,,0.05,Wunderground v.1.15,2013-04-01 14:19:00,
2013-04-01 10:24:00,53.0,43.1,29.58,West,264,1.0,10.0,69,0.00,,,0.05,Wunderground v.1.15,2013-04-01 14:24:00,
2013-04-01 10:29:00,53.5,43.6,29.59,West,265,6.0,10.0,69,0.00,,,0.05,Wunderground v.1.15,2013-04-01 14:29:00,
2013-04-01 10:34:00,53.8,42.7,29.59,West,275,7.0,14.0,66,0.00,,,0.05,Wunderground v.1.15,2013-04-01 14:34:00,
2013-04-01 10:39:00,53.7,42.6,29.59,WSW,245,7.0,15.0,66,0.00,,,0.05,Wunderground v.1.15,2013-04-01 14:39:00,
2013-04-01 10:44:00,53.6,42.5,29.59,WNW,283,2.0,11.0,66,0.00,,,0.05,Wunderground v.1.15,2013-04-01 14:44:00,
2013-04-01 10:49:00,53.8,43.1,29.58,SSW,207,5.0,11.0,67,0.00,,,0.05,Wunderground v.1.15,2013-04-01 14:49:00,
2013-04-01 10:54:00,54.1,42.6,29.58,West,265,9.0,10.0,65,0.00,,,0.05,Wunderground v.1.15,2013-04-01 14:54:00,
2013-04-01 10:59:00,54.4,42.5,29.58,NNW,334,1.0,10.0,64,0.00,,,0.05,Wunderground v.1.15,2013-04-01 14:59:00,
2013-04-01 11:04:00,54.7,43.2,29.58,SW,228,7.0,13.0,65,0.00,,,0.05,Wunderground v.1.15,2013-04-01 15:04:00,
2013-04-01 11:09:00,55.1,43.1,29.58,West,261,7.0,13.0,64,0.00,,,0.05,Wunderground v.1.15,2013-04-01 15:09:00,
2013-04-01 11:14:00,55.3,42.9,29.57,SSW,205,7.0,11.0,63,0.00,,,0.05,Wunderground v.1.15,2013-04-01 15:14:00,
2013-04-01 11:19:00,55.8,43.4,29.57,WSW,256,9.0,11.0,63,0.00,,,0.05,Wunderground v.1.15,2013-04-01 15:19:00,
2013-04-01 11:24:00,56.1,42.8,29.57,SSW,193,3.0,11.0,61,0.00,,,0.05,Wunderground v.1.15,2013-04-01 15:24:00,
2013-04-01 11:29:00,56.4,42.7,29.56,WSW,241,3.0,14.0,60,0.00,,,0.05,Wunderground v.1.15,2013-04-01 15:29:00,
2013-04-01 11:34:00,56.6,42.9,29.56,WNW,299,4.0,11.0,60,0.00,,,0.05,Wunderground v.1.15,2013-04-01 15:34:00,
2013-04-01 11:39:00,56.7,42.5,29.56,West,275,7.0,11.0,59,0.00,,,0.05,Wunderground v.1.15,2013-04-01 15:39:00,
2013-04-01 11:44:00,57.0,42.8,29.56,WSW,254,5.0,11.0,59,0.00,,,0.05,Wunderground v.1.15,2013-04-01 15:44:00,
2013-04-01 11:49:00,57.5,42.8,29.56,West,269,9.0,11.0,58,0.00,,,0.05,Wunderground v.1.15,2013-04-01 15:49:00,
2013-04-01 11:54:00,58.2,43.0,29.56,West,277,9.0,9.0,57,0.00,,,0.05,Wunderground v.1.15,2013-04-01 15:54:00,
2013-04-01 11:59:00,59.0,43.3,29.56,WNW,292,5.0,13.0,56,0.00,,,0.05,Wunderground v.1.15,2013-04-01 15:59:00,
2013-04-01 12:04:00,59.0,43.3,29.55,WSW,248,1.0,12.0,56,0.00,,,0.05,Wunderground v.1.15,2013-04-01 16:04:00,
2013-04-01 12:09:00,59.3,43.1,29.56,SSW,198,8.0,12.0,55,0.00,,,0.05,Wunderground v.1.15,2013-04-01 16:09:00,
2013-04-01 12:14:00,59.5,42.3,29.55,South,179,7.0,14.0,53,0.00,,,0.05,Wunderground v.1.15,2013-04-01 16:14:00,
2013-04-01 12:19:00,59.8,43.1,29.55,West,268,5.0,14.0,54,0.00,,,0.05,Wunderground v.1.15,2013-04-01 16:19:00,
2013-04-01 12:24:00,60.1,42.4,29.55,WSW,246,4.0,10.0,52,0.00,,,0.05,Wunderground v.1.15,2013-04-01 16:24:00,
2013-04-01 12:30:00,60.6,43.4,29.55,WSW,250,3.0,6.0,53,0.00,,,0.05,Wunderground v.1.15,2013-04-01 16:30:00,
2013-04-01 12:35:00,60.9,43.6,29.54,WSW,242,6.0,10.0,53,0.00,,,0.05,Wunderground v.1.15,2013-04-01 16:35:00,
2013-04-01 12:40:00,61.0,42.7,29.54,SSW,203,7.0,9.0,51,0.00,,,0.05,Wunderground v.1.15,2013-04-01 16:40:00,
2013-04-01 12:45:00,61.3,44.0,29.54,SSW,198,4.0,16.0,53,0.00,,,0.05,Wunderground v.1.15,2013-04-01 16:45:00,
2013-04-01 12:50:00,61.6,43.3,29.53,SW,236,6.0,9.0,51,0.00,,,0.05,Wunderground v.1.15,2013-04-01 16:50:00,
2013-04-01 12:55:00,61.7,43.4,29.53,SW,230,5.0,11.0,51,0.00,,,0.05,Wunderground v.1.15,2013-04-01 16:55:00,
2013-04-01 13:00:00,61.9,43.0,29.53,SW,219,7.0,11.0,50,0.00,,,0.05,Wunderground v.1.15,2013-04-01 17:00:00,
2013-04-01 13:05:00,62.3,43.4,29.52,WSW,244,3.0,13.0,50,0.00,,,0.05,Wunderground v.1.15,2013-04-01 17:05:00,
2013-04-01 13:10:00,62.2,43.3,29.52,SW,218,6.0,13.0,50,0.00,,,0.05,Wunderground v.1.15,2013-04-01 17:10:00,
2013-04-01 13:15:00,62.1,42.7,29.52,SSW,201,10.0,16.0,49,0.00,,,0.05,Wunderground v.1.15,2013-04-01 17:15:00,
2013-04-01 13:20:00,62.4,43.0,29.52,WSW,242,11.0,11.0,49,0.00,,,0.05,Wunderground v.1.15,2013-04-01 17:20:00,
2013-04-01 13:25:00,62.7,43.3,29.52,West,267,3.0,13.0,49,0.00,,,0.05,Wunderground v.1.15,2013-04-01 17:25:00,
2013-04-01 13:30:00,62.8,42.3,29.52,South,184,6.0,8.0,47,0.00,,,0.05,Wunderground v.1.15,2013-04-01 17:30:00,
2013-04-01 13:35:00,62.7,42.7,29.51,SSW,202,14.0,18.0,48,0.00,,,0.05,Wunderground v.1.15,2013-04-01 17:35:00,
2013-04-01 13:40:00,62.5,42.0,29.50,SW,230,3.0,8.0,47,0.00,,,0.05,Wunderground v.1.15,2013-04-01 17:40:00,
2013-04-01 13:45:00,62.5,42.5,29.50,SW,215,8.0,16.0,48,0.00,,,0.05,Wunderground v.1.15,2013-04-01 17:45:00,
2013-04-01 13:50:00,62.6,41.5,29.50,SW,232,6.0,11.0,46,0.00,,,0.05,Wunderground v.1.15,2013-04-01 17:50:00,
2013-04-01 13:55:00,62.5,40.9,29.50,WSW,240,4.0,15.0,45,0.00,,,0.05,Wunderground v.1.15,2013-04-01 17:55:00,
2013-04-01 14:00:00,62.3,41.2,29.50,WSW,248,9.0,12.0,46,0.00,,,0.05,Wunderground v.1.15,2013-04-01 18:00:00,
2013-04-01 14:05:00,62.1,41.6,29.49,WSW,257,5.0,12.0,47,0.00,,,0.05,Wunderground v.1.15,2013-04-01 18:05:00,
2013-04-01 14:10:00,61.8,41.3,29.49,SSW,208,7.0,12.0,47,0.00,,,0.05,Wunderground v.1.15,2013-04-01 18:10:00,
2013-04-01 14:15:00,61.7,40.1,29.49,SSW,206,12.0,17.0,45,0.00,,,0.05,Wunderground v.1.15,2013-04-01 18:15:00,
2013-04-01 14:20:00,61.7,40.7,29.49,SW,236,11.0,11.0,46,0.00,,,0.05,Wunderground v.1.15,2013-04-01 18:20:00,
2013-04-01 14:26:00,62.0,41.5,29.49,SW,218,9.0,17.0,47,0.00,,,0.05,Wunderground v.1.15,2013-04-01 18:26:00,
2013-04-01 14:31:00,62.3,43.4,29.48,SSW,206,9.0,18.0,50,0.00,,,0.05,Wunderground v.1.15,2013-04-01 18:31:00,
2013-04-01 14:36:00,62.7,43.8,29.48,SW,218,11.0,18.0,50,0.00,,,0.05,Wunderground v.1.15,2013-04-01 18:36:00,
2013-04-01 14:41:00,62.8,44.4,29.48,South,181,7.0,13.0,51,0.00,,,0.05,Wunderground v.1.15,2013-04-01 18:41:00,
2013-04-01 14:46:00,63.2,45.3,29.48,South,190,15.0,15.0,52,0.00,,,0.05,Wunderground v.1.15,2013-04-01 18:46:00,
2013-04-01 14:51:00,63.6,44.6,29.48,SSW,207,8.0,15.0,50,0.00,,,0.05,Wunderground v.1.15,2013-04-01 18:51:00,
2013-04-01 14:56:00,63.8,44.8,29.47,SSW,212,7.0,15.0,50,0.00,,,0.05,Wunderground v.1.15,2013-04-01 18:56:00,
2013-04-01 15:01:00,64.0,45.0,29.47,SW,233,8.0,15.0,50,0.00,,,0.05,Wunderground v.1.15,2013-04-01 19:01:00,
2013-04-01 15:07:00,63.6,44.1,29.47,SSW,199,3.0,18.0,49,0.00,,,0.05,Wunderground v.1.15,2013-04-01 19:07:00,
2013-04-01 15:11:00,63.0,44.6,29.46,South,188,4.0,10.0,51,0.00,,,0.05,Wunderground v.1.15,2013-04-01 19:11:00,
2013-04-01 15:17:00,62.5,44.6,29.46,SSW,209,8.0,16.0,52,0.00,,,0.05,Wunderground v.1.15,2013-04-01 19:17:00,
2013-04-01 15:22:00,61.8,44.5,29.46,South,190,13.0,17.0,53,0.00,,,0.05,Wunderground v.1.15,2013-04-01 19:22:00,
2013-04-01 15:27:00,61.1,44.3,29.46,SW,225,7.0,17.0,54,0.00,,,0.05,Wunderground v.1.15,2013-04-01 19:27:00,
2013-04-01 15:32:00,60.4,45.5,29.47,SW,217,4.0,16.0,58,0.00,,,0.05,Wunderground v.1.15,2013-04-01 19:32:00,
2013-04-01 15:38:00,59.3,47.5,29.48,SW,221,6.0,16.0,65,0.22,,,0.07,Wunderground v.1.15,2013-04-01 19:38:00,
2013-04-01 15:43:00,58.3,47.0,29.48,SW,225,17.0,24.0,66,0.08,,,0.07,Wunderground v.1.15,2013-04-01 19:43:00,
2013-04-01 15:48:00,56.7,46.3,29.48,West,265,8.0,24.0,68,0.06,,,0.08,Wunderground v.1.15,2013-04-01 19:48:00,
2013-04-01 15:53:00,55.8,46.2,29.47,WSW,243,6.0,12.0,70,0.06,,,0.08,Wunderground v.1.15,2013-04-01 19:53:00,
2013-04-01 15:58:00,55.5,47.3,29.47,WNW,284,4.0,12.0,74,0.05,,,0.08,Wunderground v.1.15,2013-04-01 19:58:00,
2013-04-01 16:03:00,55.6,47.8,29.47,WSW,244,6.0,10.0,75,0.00,,,0.08,Wunderground v.1.15,2013-04-01 20:03:00,
2013-04-01 16:08:00,55.5,47.0,29.46,SW,236,5.0,11.0,73,0.00,,,0.08,Wunderground v.1.15,2013-04-01 20:08:00,
2013-04-01 16:13:00,55.6,46.7,29.47,WNW,299,5.0,10.0,72,0.00,,,0.08,Wunderground v.1.15,2013-04-01 20:13:00,
2013-04-01 16:19:00,55.4,45.0,29.48,WNW,302,7.0,19.0,68,0.00,,,0.08,Wunderground v.1.15,2013-04-01 20:19:00,
2013-04-01 16:24:00,54.7,44.0,29.49,West,267,10.0,17.0,67,0.00,,,0.08,Wunderground v.1.15,2013-04-01 20:24:00,
2013-04-01 16:29:00,53.9,43.2,29.49,NW,306,8.0,17.0,67,0.00,,,0.08,Wunderground v.1.15,2013-04-01 20:29:00,
2013-04-01 16:34:00,53.3,43.4,29.49,NW,314,6.0,15.0,69,0.00,,,0.08,Wunderground v.1.15,2013-04-01 20:34:00,
2013-04-01 16:39:00,52.5,42.2,29.50,SW,227,9.0,21.0,68,0.00,,,0.08,Wunderground v.1.15,2013-04-01 20:39:00,
2013-04-01 16:44:00,51.8,42.3,29.51,NW,317,5.0,20.0,70,0.00,,,0.08,Wunderground v.1.15,2013-04-01 20:44:00,
2013-04-01 16:49:00,50.8,42.1,29.52,WNW,302,13.0,27.0,72,0.00,,,0.08,Wunderground v.1.15,2013-04-01 20:49:00,
2013-04-01 16:54:00,49.9,42.3,29.51,North,360,5.0,21.0,75,0.31,,,0.11,Wunderground v.1.15,2013-04-01 20:54:00,
2013-04-01 16:59:00,49.1,41.9,29.52,NW,315,9.0,21.0,76,0.21,,,0.12,Wunderground v.1.15,2013-04-01 20:59:00,
2013-04-01 17:04:00,48.6,42.0,29.53,NW,306,5.0,17.0,78,0.14,,,0.13,Wunderground v.1.15,2013-04-01 21:04:00,
2013-04-01 17:09:00,48.2,41.7,29.54,NW,317,6.0,17.0,78,0.07,,,0.13,Wunderground v.1.15,2013-04-01 21:09:00,
2013-04-01 17:14:00,47.8,41.3,29.54,West,270,6.0,15.0,78,0.06,,,0.14,Wunderground v.1.15,2013-04-01 21:14:00,
2013-04-01 17:19:00,47.6,41.4,29.55,NNW,329,6.0,15.0,79,0.06,,,0.14,Wunderground v.1.15,2013-04-01 21:19:00,
2013-04-01 17:24:00,47.4,41.5,29.55,West,279,7.0,13.0,80,0.04,,,0.14,Wunderground v.1.15,2013-04-01 21:24:00,
2013-04-01 17:29:00,47.3,41.4,29.55,WNW,284,4.0,17.0,80,0.00,,,0.14,Wunderground v.1.15,2013-04-01 21:29:00,
2013-04-01 17:34:00,47.4,41.5,29.56,NW,306,9.0,15.0,80,0.00,,,0.14,Wunderground v.1.15,2013-04-01 21:34:00,
2013-04-01 17:39:00,47.4,41.2,29.56,West,281,9.0,15.0,79,0.00,,,0.14,Wunderground v.1.15,2013-04-01 21:39:00,
2013-04-01 17:44:00,47.4,40.9,29.57,NNW,327,9.0,16.0,78,0.00,,,0.14,Wunderground v.1.15,2013-04-01 21:44:00,
2013-04-01 17:49:00,47.1,39.2,29.57,SW,234,6.0,21.0,74,0.00,,,0.14,Wunderground v.1.15,2013-04-01 21:49:00,
2013-04-01 17:54:00,46.9,38.3,29.57,NW,306,15.0,17.0,72,0.00,,,0.14,Wunderground v.1.15,2013-04-01 21:54:00,
2013-04-01 17:59:00,46.7,37.1,29.58,NNW,336,10.0,19.0,69,0.00,,,0.14,Wunderground v.1.15,2013-04-01 21:59:00,
2013-04-01 18:04:00,46.4,35.3,29.58,West,273,25.0,27.0,65,0.00,,,0.14,Wunderground v.1.15,2013-04-01 22:04:00,
2013-04-01 18:09:00,46.1,35.0,29.59,NW,306,14.0,27.0,65,0.00,,,0.14,Wunderground v.1.15,2013-04-01 22:09:00,
2013-04-01 18:14:00,46.0,35.3,29.59,West,272,6.0,22.0,66,0.00,,,0.14,Wunderground v.1.15,2013-04-01 22:14:00,
2013-04-01 18:19:00,45.8,33.9,29.60,SW,236,15.0,22.0,63,0.00,,,0.14,Wunderground v.1.15,2013-04-01 22:19:00,
2013-04-01 18:24:00,45.5,32.8,29.60,NNW,329,32.0,32.0,61,0.00,,,0.14,Wunderground v.1.15,2013-04-01 22:24:00,
2013-04-01 18:29:00,45.2,32.9,29.60,WNW,290,7.0,32.0,62,0.00,,,0.14,Wunderground v.1.15,2013-04-01 22:29:00,
2013-04-01 18:34:00,45.0,32.3,29.60,West,280,12.0,24.0,61,0.00,,,0.14,Wunderground v.1.15,2013-04-01 22:34:00,
2013-04-01 18:39:00,44.9,31.8,29.61,NW,313,10.0,24.0,60,0.00,,,0.14,Wunderground v.1.15,2013-04-01 22:39:00,
2013-04-01 18:44:00,44.6,32.0,29.61,NW,320,9.0,19.0,61,0.00,,,0.14,Wunderground v.1.15,2013-04-01 22:44:00,
2013-04-01 18:49:00,44.5,31.9,29.61,WSW,256,11.0,19.0,61,0.00,,,0.14,Wunderground v.1.15,2013-04-01 22:49:00,
2013-04-01 18:55:00,44.3,30.9,29.62,NW,306,17.0,22.0,59,0.00,,,0.14,Wunderground v.1.15,2013-04-01 22:55:00,
2013-04-01 19:00:00,44.0,30.6,29.62,North,349,5.0,11.0,59,0.00,,,0.14,Wunderground v.1.15,2013-04-01 23:00:00,
2013-04-01 19:05:00,43.8,30.8,29.62,WNW,286,3.0,13.0,60,0.00,,,0.14,Wunderground v.1.15,2013-04-01 23:05:00,
2013-04-01 19:10:00,43.6,30.2,29.62,NW,304,8.0,15.0,59,0.00,,,0.14,Wunderground v.1.15,2013-04-01 23:10:00,
2013-04-01 19:15:00,43.4,29.6,29.62,West,277,7.0,20.0,58,0.00,,,0.14,Wunderground v.1.15,2013-04-01 23:15:00,
2013-04-01 19:20:00,43.3,29.9,29.62,West,260,4.0,10.0,59,0.00,,,0.14,Wunderground v.1.15,2013-04-01 23:20:00,
2013-04-01 19:25:00,43.1,28.9,29.62,West,267,8.0,21.0,57,0.00,,,0.14,Wunderground v.1.15,2013-04-01 23:25:00,
2013-04-01 19:30:00,42.9,28.3,29.63,WNW,302,14.0,18.0,56,0.00,,,0.14,Wunderground v.1.15,2013-04-01 23:30:00,
2013-04-01 19:35:00,42.7,27.6,29.63,NW,311,6.0,21.0,55,0.00,,,0.14,Wunderground v.1.15,2013-04-01 23:35:00,
2013-04-01 19:40:00,42.5,27.9,29.63,WNW,299,22.0,22.0,56,0.00,,,0.14,Wunderground v.1.15,2013-04-01 23:40:00,
2013-04-01 19:45:00,42.3,27.7,29.64,NNW,347,9.0,22.0,56,0.00,,,0.14,Wunderground v.1.15,2013-04-01 23:45:00,
2013-04-01 19:50:00,42.2,27.6,29.64,WNW,288,6.0,10.0,56,0.00,,,0.14,Wunderground v.1.15,2013-04-01 23:50:00,
2013-04-01 19:55:00,42.1,27.5,29.64,WNW,292,5.0,16.0,56,0.00,,,0.14,Wunderground v.1.15,2013-04-01 23:55:00,
2013-04-01 20:00:00,42.1,27.5,29.64,NNW,346,10.0,20.0,56,0.00,,,0.14,Wunderground v.1.15,2013-04-02 00:00:00,
2013-04-01 20:05:00,42.0,27.0,29.64,WNW,299,9.0,20.0,55,0.00,,,0.14,Wunderground v.1.15,2013-04-02 00:05:00,
2013-04-01 20:10:00,41.9,26.4,29.64,SW,221,3.0,11.0,54,0.00,,,0.14,Wunderground v.1.15,2013-04-02 00:10:00,
2013-04-01 20:15:00,41.8,26.8,29.65,WSW,242,13.0,16.0,55,0.00,,,0.14,Wunderground v.1.15,2013-04-02 00:15:00,
2013-04-01 20:20:00,41.6,25.7,29.65,NNW,330,10.0,10.0,53,0.00,,,0.14,Wunderground v.1.15,2013-04-02 00:20:00,
2013-04-01 20:25:00,41.4,24.1,29.66,West,265,14.0,27.0,50,0.00,,,0.14,Wunderground v.1.15,2013-04-02 00:25:00,
2013-04-01 20:30:00,41.3,22.6,29.67,WNW,288,10.0,19.0,47,0.00,,,0.14,Wunderground v.1.15,2013-04-02 00:30:00,
2013-04-01 20:35:00,41.1,21.9,29.67,WNW,288,7.0,22.0,46,0.00,,,0.14,Wunderground v.1.15,2013-04-02 00:35:00,
2013-04-01 20:40:00,41.0,21.8,29.67,WNW,302,10.0,17.0,46,0.00,,,0.14,Wunderground v.1.15,2013-04-02 00:40:00,
2013-04-01 20:45:00,40.9,22.2,29.68,West,273,11.0,17.0,47,0.00,,,0.14,Wunderground v.1.15,2013-04-02 00:45:00,
2013-04-01 20:50:00,40.7,22.5,29.68,WNW,283,8.0,10.0,48,0.00,,,0.14,Wunderground v.1.15,2013-04-02 00:50:00,
2013-04-01 20:55:00,40.5,21.8,29.68,West,265,6.0,16.0,47,0.00,,,0.14,Wunderground v.1.15,2013-04-02 00:55:00,
2013-04-01 21:01:00,40.4,22.2,29.68,WNW,290,10.0,23.0,48,0.00,,,0.14,Wunderground v.1.15,2013-04-02 01:01:00,
2013-04-01 21:06:00,40.1,21.0,29.69,NNW,329,9.0,23.0,46,0.00,,,0.14,Wunderground v.1.15,2013-04-02 01:06:00,
2013-04-01 21:11:00,40.0,21.4,29.69,WNW,300,4.0,19.0,47,0.00,,,0.14,Wunderground v.1.15,2013-04-02 01:11:00,
2013-04-01 21:16:00,39.8,21.2,29.69,WNW,282,12.0,22.0,47,0.00,,,0.14,Wunderground v.1.15,2013-04-02 01:16:00,
2013-04-01 21:21:00,39.6,20.5,29.69,NNW,329,7.0,12.0,46,0.00,,,0.14,Wunderground v.1.15,2013-04-02 01:21:00,
2013-04-01 21:26:00,39.4,20.3,29.69,WNW,299,2.0,17.0,46,0.00,,,0.14,Wunderground v.1.15,2013-04-02 01:26:00,
2013-04-01 21:31:00,39.2,20.1,29.69,WNW,303,4.0,10.0,46,0.00,,,0.14,Wunderground v.1.15,2013-04-02 01:31:00,
2013-04-01 21:37:00,39.0,20.5,29.70,WNW,287,7.0,14.0,47,0.00,,,0.14,Wunderground v.1.15,2013-04-02 01:37:00,
2013-04-01 21:42:00,38.9,19.3,29.70,WNW,302,5.0,14.0,45,0.00,,,0.14,Wunderground v.1.15,2013-04-02 01:42:00,
2013-04-01 21:47:00,38.8,19.8,29.70,NW,319,4.0,14.0,46,0.00,,,0.14,Wunderground v.1.15,2013-04-02 01:47:00,
2013-04-01 21:52:00,38.6,19.6,29.71,WSW,250,7.0,9.0,46,0.00,,,0.14,Wunderground v.1.15,2013-04-02 01:52:00,
2013-04-01 21:57:00,38.5,19.0,29.71,NW,308,4.0,17.0,45,0.00,,,0.14,Wunderground v.1.15,2013-04-02 01:57:00,
2013-04-01 22:02:00,38.3,18.8,29.71,WNW,291,10.0,15.0,45,0.00,,,0.14,Wunderground v.1.15,2013-04-02 02:02:00,
2013-04-01 22:07:00,38.2,18.7,29.72,NW,317,13.0,16.0,45,0.00,,,0.14,Wunderground v.1.15,2013-04-02 02:07:00,
2013-04-01 22:12:00,38.1,18.1,29.72,WNW,286,5.0,18.0,44,0.00,,,0.14,Wunderground v.1.15,2013-04-02 02:12:00,
2013-04-01 22:17:00,37.9,17.4,29.72,WSW,251,5.0,18.0,43,0.00,,,0.14,Wunderground v.1.15,2013-04-02 02:17:00,
2013-04-01 22:22:00,37.8,17.3,29.72,WNW,282,8.0,12.0,43,0.00,,,0.14,Wunderground v.1.15,2013-04-02 02:22:00,
2013-04-01 22:27:00,37.6,16.5,29.73,NNW,339,4.0,17.0,42,0.00,,,0.14,Wunderground v.1.15,2013-04-02 02:27:00,
2013-04-01 22:32:00,37.5,15.9,29.72,NW,319,10.0,13.0,41,0.00,,,0.14,Wunderground v.1.15,2013-04-02 02:32:00,
2013-04-01 22:37:00,37.4,15.8,29.72,NNW,336,6.0,15.0,41,0.00,,,0.14,Wunderground v.1.15,2013-04-02 02:37:00,
2013-04-01 22:42:00,37.2,16.2,29.72,WNW,293,9.0,16.0,42,0.00,,,0.14,Wunderground v.1.15,2013-04-02 02:42:00,
2013-04-01 22:47:00,37.1,16.1,29.73,West,265,13.0,17.0,42,0.00,,,0.14,Wunderground v.1.15,2013-04-02 02:47:00,
2013-04-01 22:52:00,37.0,16.0,29.73,NW,322,8.0,15.0,42,0.00,,,0.14,Wunderground v.1.15,2013-04-02 02:52:00,
2013-04-01 22:57:00,36.9,15.9,29.73,WSW,258,9.0,19.0,42,0.00,,,0.14,Wunderground v.1.15,2013-04-02 02:57:00,
2013-04-01 23:02:00,36.8,14.7,29.74,West,268,2.0,16.0,40,0.00,,,0.14,Wunderground v.1.15,2013-04-02 03:02:00,
2013-04-01 23:08:00,36.7,15.2,29.74,WNW,284,5.0,16.0,41,0.00,,,0.14,Wunderground v.1.15,2013-04-02 03:08:00,
2013-04-01 23:13:00,36.7,16.3,29.74,WNW,299,3.0,7.0,43,0.00,,,0.14,Wunderground v.1.15,2013-04-02 03:13:00,
2013-04-01 23:18:00,36.5,15.6,29.74,West,265,6.0,14.0,42,0.00,,,0.14,Wunderground v.1.15,2013-04-02 03:18:00,
2013-04-01 23:23:00,36.4,15.5,29.74,NW,304,9.0,14.0,42,0.00,,,0.14,Wunderground v.1.15,2013-04-02 03:23:00,
2013-04-01 23:28:00,36.2,15.8,29.75,West,269,8.0,14.0,43,0.00,,,0.14,Wunderground v.1.15,2013-04-02 03:28:00,
2013-04-01 23:33:00,36.1,14.6,29.75,WSW,237,8.0,20.0,41,0.00,,,0.14,Wunderground v.1.15,2013-04-02 03:33:00,
2013-04-01 23:38:00,36.0,15.6,29.75,NW,313,16.0,20.0,43,0.00,,,0.14,Wunderground v.1.15,2013-04-02 03:38:00,
2013-04-01 23:43:00,35.8,14.9,29.75,NW,322,6.0,18.0,42,0.00,,,0.14,Wunderground v.1.15,2013-04-02 03:43:00,
2013-04-01 23:48:00,35.7,14.8,29.75,NNW,329,6.0,23.0,42,0.00,,,0.14,Wunderground v.1.15,2013-04-02 03:48:00,
2013-04-01 23:53:00,35.6,15.3,29.75,WSW,241,3.0,16.0,43,0.00,,,0.14,Wunderground v.1.15,2013-04-02 03:53:00,
2013-04-01 23:58:00,35.4,15.1,29.75,NW,313,8.0,16.0,43,0.00,,,0.14,Wunderground v.1.15,2013-04-02 03:58:00,